Time,TemperatureF,DewpointF,PressureIn,WindDirection,WindDirectionDegrees,WindSpeedMPH,WindSpeedGustMPH,Humidity,HourlyPrecipIn,Conditions,Clouds,dailyrainin,SoftwareType,DateUTC
2013-05-15 00:01:00,39.0,32.0,29.57,North,360,2.0,3.0,76,0.00,,,0.00,Rainwise IP-100,2013-05-15 04:01:00,
2013-05-15 00:06:00,39.0,33.0,29.57,North,360,2.0,3.0,78,0.00,,,0.00,Rainwise IP-100,2013-05-15 04:06:00,
2013-05-15 00:11:00,39.0,33.0,29.57,North,360,2.0,3.0,78,0.00,,,0.00,Rainwise IP-100,2013-05-15 04:11:00,
2013-05-15 00:16:00,39.0,33.0,29.57,North,360,2.0,3.0,80,0.00,,,0.00,Rainwise IP-100,2013-05-15 04:16:00,
2013-05-15 00:21:00,39.0,33.0,29.57,North,360,2.0,3.0,79,0.00,,,0.00,Rainwise IP-100,2013-05-15 04:21:00,
2013-05-15 00:26:00,39.0,33.0,29.57,North,360,3.0,3.0,80,0.00,,,0.00,Rainwise IP-100,2013-05-15 04:26:00,
2013-05-15 00:31:00,39.0,33.0,29.57,North,360,2.0,3.0,79,0.00,,,0.00,Rainwise IP-100,2013-05-15 04:31:00,
2013-05-15 00:36:00,39.0,33.0,29.57,North,360,2.0,3.0,79,0.00,,,0.00,Rainwise IP-100,2013-05-15 04:36:00,
2013-05-15 00:41:00,39.0,33.0,29.57,North,360,2.0,3.0,79,0.00,,,0.00,Rainwise IP-100,2013-05-15 04:41:00,
2013-05-15 00:46:00,39.0,33.0,29.57,North,360,2.0,3.0,79,0.00,,,0.00,Rainwise IP-100,2013-05-15 04:46:00,
2013-05-15 00:51:00,39.0,33.0,29.56,North,360,3.0,3.0,80,0.00,,,0.00,Rainwise IP-100,2013-05-15 04:51:00,
2013-05-15 00:55:00,39.0,33.0,29.56,North,360,3.0,3.0,81,0.00,,,0.00,Rainwise IP-100,2013-05-15 04:55:00,
2013-05-15 01:00:00,38.0,33.0,29.56,North,360,2.0,3.0,83,0.00,,,0.00,Rainwise IP-100,2013-05-15 05:00:00,
2013-05-15 01:05:00,38.0,33.0,29.57,North,360,2.0,3.0,83,0.00,,,0.00,Rainwise IP-100,2013-05-15 05:05:00,
2013-05-15 01:10:00,38.0,33.0,29.57,North,360,2.0,3.0,84,0.00,,,0.00,Rainwise IP-100,2013-05-15 05:10:00,
2013-05-15 01:15:00,38.0,33.0,29.57,North,360,1.0,3.0,84,0.00,,,0.00,Rainwise IP-100,2013-05-15 05:15:00,
2013-05-15 01:20:00,38.0,33.0,29.57,North,360,3.0,3.0,84,0.00,,,0.00,Rainwise IP-100,2013-05-15 05:20:00,
2013-05-15 01:25:00,38.0,33.0,29.57,North,360,2.0,3.0,83,0.00,,,0.00,Rainwise IP-100,2013-05-15 05:25:00,
2013-05-15 01:30:00,38.0,33.0,29.57,North,360,3.0,3.0,84,0.00,,,0.00,Rainwise IP-100,2013-05-15 05:30:00,
2013-05-15 01:35:00,38.0,35.0,29.57,North,360,2.0,3.0,85,0.00,,,0.00,Rainwise IP-100,2013-05-15 05:35:00,
2013-05-15 01:40:00,38.0,35.0,29.57,North,360,3.0,3.0,85,0.00,,,0.00,Rainwise IP-100,2013-05-15 05:40:00,
2013-05-15 01:45:00,37.0,33.0,29.57,North,360,0.0,3.0,85,0.00,,,0.00,Rainwise IP-100,2013-05-15 05:45:00,
2013-05-15 01:50:00,37.0,33.0,29.57,North,360,1.0,3.0,86,0.00,,,0.00,Rainwise IP-100,2013-05-15 05:50:00,
2013-05-15 01:55:00,37.0,33.0,29.57,North,360,2.0,3.0,87,0.00,,,0.00,Rainwise IP-100,2013-05-15 05:55:00,
2013-05-15 02:00:00,38.0,35.0,29.57,North,360,2.0,3.0,85,0.00,,,0.00,Rainwise IP-100,2013-05-15 06:00:00,
2013-05-15 02:05:00,38.0,35.0,29.57,North,360,1.0,3.0,85,0.00,,,0.00,Rainwise IP-100,2013-05-15 06:05:00,
2013-05-15 02:10:00,38.0,35.0,29.57,North,360,2.0,2.0,85,0.00,,,0.00,Rainwise IP-100,2013-05-15 06:10:00,
2013-05-15 02:15:00,38.0,35.0,29.57,North,360,1.0,3.0,85,0.00,,,0.00,Rainwise IP-100,2013-05-15 06:15:00,
2013-05-15 02:20:00,38.0,35.0,29.57,North,360,1.0,3.0,85,0.00,,,0.00,Rainwise IP-100,2013-05-15 06:20:00,
2013-05-15 02:25:00,38.0,33.0,29.57,North,360,2.0,2.0,84,0.00,,,0.00,Rainwise IP-100,2013-05-15 06:25:00,
2013-05-15 02:30:00,38.0,35.0,29.57,North,360,2.0,3.0,85,0.00,,,0.00,Rainwise IP-100,2013-05-15 06:30:00,
2013-05-15 02:35:00,38.0,35.0,29.57,North,360,0.0,3.0,85,0.00,,,0.00,Rainwise IP-100,2013-05-15 06:35:00,
2013-05-15 02:40:00,38.0,35.0,29.57,North,360,0.0,1.0,85,0.00,,,0.00,Rainwise IP-100,2013-05-15 06:40:00,
2013-05-15 02:45:00,38.0,35.0,29.57,North,360,1.0,3.0,85,0.00,,,0.00,Rainwise IP-100,2013-05-15 06:45:00,
2013-05-15 02:50:00,38.0,35.0,29.57,North,360,1.0,3.0,86,0.00,,,0.00,Rainwise IP-100,2013-05-15 06:50:00,
2013-05-15 02:55:00,38.0,35.0,29.56,WSW,247,0.0,3.0,86,0.00,,,0.00,Rainwise IP-100,2013-05-15 06:55:00,
2013-05-15 03:00:00,38.0,35.0,29.56,WSW,247,0.0,0.0,85,0.00,,,0.00,Rainwise IP-100,2013-05-15 07:00:00,
2013-05-15 03:05:00,37.0,33.0,29.56,WSW,247,0.0,0.0,87,0.00,,,0.00,Rainwise IP-100,2013-05-15 07:05:00,
2013-05-15 03:10:00,37.0,33.0,29.56,WSW,247,0.0,0.0,87,0.00,,,0.00,Rainwise IP-100,2013-05-15 07:10:00,
2013-05-15 03:15:00,37.0,33.0,29.56,WSW,247,0.0,0.0,88,0.00,,,0.00,Rainwise IP-100,2013-05-15 07:15:00,
2013-05-15 03:20:00,37.0,35.0,29.56,WSW,247,0.0,0.0,89,0.00,,,0.00,Rainwise IP-100,2013-05-15 07:20:00,
2013-05-15 03:25:00,36.0,33.0,29.56,WSW,247,0.0,0.0,89,0.00,,,0.00,Rainwise IP-100,2013-05-15 07:25:00,
2013-05-15 03:30:00,36.0,33.0,29.56,WSW,247,0.0,0.0,90,0.00,,,0.00,Rainwise IP-100,2013-05-15 07:30:00,
2013-05-15 03:35:00,36.0,33.0,29.56,West,270,0.0,1.0,90,0.00,,,0.00,Rainwise IP-100,2013-05-15 07:35:00,
2013-05-15 03:40:00,36.0,33.0,29.56,North,360,3.0,3.0,90,0.00,,,0.00,Rainwise IP-100,2013-05-15 07:40:00,
2013-05-15 03:45:00,36.0,33.0,29.55,North,360,1.0,4.0,90,0.00,,,0.00,Rainwise IP-100,2013-05-15 07:45:00,
2013-05-15 03:50:00,35.0,32.0,29.55,North,360,3.0,3.0,91,0.00,,,0.00,Rainwise IP-100,2013-05-15 07:50:00,
2013-05-15 03:55:00,35.0,32.0,29.55,North,360,3.0,4.0,92,0.00,,,0.00,Rainwise IP-100,2013-05-15 07:55:00,
2013-05-15 04:00:00,35.0,33.0,29.55,North,360,3.0,4.0,93,0.00,,,0.00,Rainwise IP-100,2013-05-15 08:00:00,
2013-05-15 04:05:00,35.0,33.0,29.55,North,360,3.0,4.0,93,0.00,,,0.00,Rainwise IP-100,2013-05-15 08:05:00,
2013-05-15 04:10:00,35.0,33.0,29.55,North,360,3.0,4.0,94,0.00,,,0.00,Rainwise IP-100,2013-05-15 08:10:00,
2013-05-15 04:15:00,35.0,33.0,29.55,North,360,2.0,4.0,94,0.00,,,0.00,Rainwise IP-100,2013-05-15 08:15:00,
2013-05-15 04:20:00,35.0,33.0,29.55,North,360,2.0,3.0,94,0.00,,,0.00,Rainwise IP-100,2013-05-15 08:20:00,
2013-05-15 04:25:00,35.0,33.0,29.55,North,360,2.0,3.0,94,0.00,,,0.00,Rainwise IP-100,2013-05-15 08:25:00,
2013-05-15 04:30:00,35.0,33.0,29.55,North,360,2.0,3.0,94,0.00,,,0.00,Rainwise IP-100,2013-05-15 08:30:00,
2013-05-15 04:35:00,35.0,33.0,29.55,North,360,3.0,4.0,94,0.00,,,0.00,Rainwise IP-100,2013-05-15 08:35:00,
2013-05-15 04:40:00,35.0,33.0,29.55,North,360,3.0,4.0,94,0.00,,,0.00,Rainwise IP-100,2013-05-15 08:40:00,
2013-05-15 04:45:00,35.0,33.0,29.55,North,360,3.0,4.0,94,0.00,,,0.00,Rainwise IP-100,2013-05-15 08:45:00,
2013-05-15 04:50:00,35.0,33.0,29.55,North,360,3.0,4.0,94,0.00,,,0.00,Rainwise IP-100,2013-05-15 08:50:00,
2013-05-15 04:55:00,35.0,33.0,29.55,North,360,3.0,4.0,94,0.00,,,0.00,Rainwise IP-100,2013-05-15 08:55:00,
2013-05-15 05:00:00,35.0,33.0,29.55,North,360,2.0,3.0,94,0.00,,,0.00,Rainwise IP-100,2013-05-15 09:00:00,
2013-05-15 05:05:00,35.0,33.0,29.56,North,360,3.0,3.0,94,0.00,,,0.00,Rainwise IP-100,2013-05-15 09:05:00,
2013-05-15 05:10:00,35.0,33.0,29.56,North,360,3.0,4.0,94,0.00,,,0.00,Rainwise IP-100,2013-05-15 09:10:00,
2013-05-15 05:15:00,35.0,33.0,29.56,North,360,2.0,3.0,94,0.00,,,0.00,Rainwise IP-100,2013-05-15 09:15:00,
2013-05-15 05:20:00,35.0,33.0,29.56,North,360,3.0,3.0,94,0.00,,,0.00,Rainwise IP-100,2013-05-15 09:20:00,
2013-05-15 05:25:00,35.0,33.0,29.56,North,360,3.0,5.0,95,0.00,,,0.00,Rainwise IP-100,2013-05-15 09:25:00,
2013-05-15 05:26:00,35.0,33.0,29.56,North,360,3.0,5.0,95,0.00,,,0.00,Rainwise IP-100,2013-05-15 09:26:00,
2013-05-15 05:31:00,35.0,33.0,29.56,North,360,2.0,3.0,95,0.00,,,0.00,Rainwise IP-100,2013-05-15 09:31:00,
2013-05-15 05:36:00,35.0,33.0,29.56,North,360,2.0,3.0,95,0.00,,,0.00,Rainwise IP-100,2013-05-15 09:36:00,
2013-05-15 05:41:00,36.0,35.0,29.56,North,360,2.0,4.0,95,0.00,,,0.00,Rainwise IP-100,2013-05-15 09:41:00,
2013-05-15 05:46:00,36.0,35.0,29.56,North,360,2.0,4.0,95,0.00,,,0.00,Rainwise IP-100,2013-05-15 09:46:00,
2013-05-15 05:51:00,37.0,36.0,29.57,North,360,2.0,4.0,95,0.00,,,0.00,Rainwise IP-100,2013-05-15 09:51:00,
2013-05-15 05:56:00,38.0,37.0,29.57,North,360,3.0,4.0,94,0.00,,,0.00,Rainwise IP-100,2013-05-15 09:56:00,
2013-05-15 06:01:00,39.0,37.0,29.57,North,360,2.0,4.0,93,0.00,,,0.00,Rainwise IP-100,2013-05-15 10:01:00,
2013-05-15 06:06:00,40.0,38.0,29.57,North,360,3.0,3.0,93,0.00,,,0.00,Rainwise IP-100,2013-05-15 10:06:00,
2013-05-15 06:11:00,41.0,39.0,29.59,North,360,0.0,3.0,92,0.00,,,0.00,Rainwise IP-100,2013-05-15 10:11:00,
2013-05-15 06:16:00,42.0,40.0,29.59,North,360,1.0,3.0,91,0.00,,,0.00,Rainwise IP-100,2013-05-15 10:16:00,
2013-05-15 06:21:00,42.0,39.0,29.59,West,270,1.0,3.0,88,0.00,,,0.00,Rainwise IP-100,2013-05-15 10:21:00,
2013-05-15 06:26:00,43.0,40.0,29.59,NNE,22,1.0,3.0,89,0.00,,,0.00,Rainwise IP-100,2013-05-15 10:26:00,
2013-05-15 06:31:00,44.0,40.0,29.60,North,360,1.0,2.0,87,0.00,,,0.00,Rainwise IP-100,2013-05-15 10:31:00,
2013-05-15 06:36:00,45.0,41.0,29.60,North,360,0.0,1.0,86,0.00,,,0.00,Rainwise IP-100,2013-05-15 10:36:00,
2013-05-15 06:41:00,46.0,41.0,29.61,North,360,0.0,2.0,84,0.00,,,0.00,Rainwise IP-100,2013-05-15 10:41:00,
2013-05-15 06:46:00,47.0,41.0,29.61,North,360,0.0,3.0,80,0.00,,,0.00,Rainwise IP-100,2013-05-15 10:46:00,
2013-05-15 06:51:00,48.0,42.0,29.62,SSW,202,0.0,1.0,78,0.00,,,0.00,Rainwise IP-100,2013-05-15 10:51:00,
2013-05-15 06:56:00,49.0,41.0,29.62,SSW,202,0.0,1.0,75,0.00,,,0.00,Rainwise IP-100,2013-05-15 10:56:00,
2013-05-15 07:01:00,50.0,41.0,29.62,SE,135,0.0,2.0,73,0.00,,,0.00,Rainwise IP-100,2013-05-15 11:01:00,
2013-05-15 07:06:00,51.0,41.0,29.62,North,360,3.0,4.0,69,0.00,,,0.00,Rainwise IP-100,2013-05-15 11:06:00,
2013-05-15 07:11:00,51.0,41.0,29.62,North,360,1.0,6.0,68,0.00,,,0.00,Rainwise IP-100,2013-05-15 11:11:00,
2013-05-15 07:16:00,51.0,39.0,29.62,West,270,4.0,6.0,63,0.00,,,0.00,Rainwise IP-100,2013-05-15 11:16:00,
2013-05-15 07:21:00,51.0,40.0,29.63,West,270,3.0,9.0,66,0.00,,,0.00,Rainwise IP-100,2013-05-15 11:21:00,
2013-05-15 07:26:00,50.0,39.0,29.63,West,270,0.0,8.0,66,0.00,,,0.00,Rainwise IP-100,2013-05-15 11:26:00,
2013-05-15 07:31:00,51.0,39.0,29.63,SW,225,2.0,5.0,63,0.00,,,0.00,Rainwise IP-100,2013-05-15 11:31:00,
2013-05-15 07:36:00,52.0,40.0,29.63,West,270,3.0,7.0,65,0.00,,,0.00,Rainwise IP-100,2013-05-15 11:36:00,
2013-05-15 07:41:00,52.0,40.0,29.63,NE,45,3.0,9.0,63,0.00,,,0.00,Rainwise IP-100,2013-05-15 11:41:00,
2013-05-15 07:46:00,52.0,39.0,29.63,SE,135,1.0,7.0,62,0.00,,,0.00,Rainwise IP-100,2013-05-15 11:46:00,
2013-05-15 07:51:00,53.0,40.0,29.64,NE,45,1.0,7.0,62,0.00,,,0.00,Rainwise IP-100,2013-05-15 11:51:00,
2013-05-15 07:56:00,54.0,41.0,29.64,West,270,1.0,5.0,61,0.00,,,0.00,Rainwise IP-100,2013-05-15 11:56:00,
2013-05-15 08:01:00,55.0,39.0,29.64,North,360,5.0,5.0,54,0.00,,,0.00,Rainwise IP-100,2013-05-15 12:01:00,
2013-05-15 08:06:00,54.0,36.0,29.64,West,270,7.0,7.0,51,0.00,,,0.00,Rainwise IP-100,2013-05-15 12:06:00,
2013-05-15 08:11:00,54.0,40.0,29.63,West,270,2.0,11.0,59,0.00,,,0.00,Rainwise IP-100,2013-05-15 12:11:00,
2013-05-15 08:16:00,55.0,41.0,29.63,WSW,247,2.0,10.0,58,0.00,,,0.00,Rainwise IP-100,2013-05-15 12:16:00,
2013-05-15 08:21:00,55.0,38.0,29.63,NNE,22,3.0,8.0,52,0.00,,,0.00,Rainwise IP-100,2013-05-15 12:21:00,
2013-05-15 08:26:00,56.0,37.0,29.63,West,270,6.0,7.0,48,0.00,,,0.00,Rainwise IP-100,2013-05-15 12:26:00,
2013-05-15 08:31:00,55.0,36.0,29.63,West,270,4.0,7.0,48,0.00,,,0.00,Rainwise IP-100,2013-05-15 12:31:00,
2013-05-15 08:36:00,56.0,38.0,29.63,West,270,4.0,10.0,52,0.00,,,0.00,Rainwise IP-100,2013-05-15 12:36:00,
2013-05-15 08:41:00,56.0,39.0,29.63,West,270,4.0,6.0,53,0.00,,,0.00,Rainwise IP-100,2013-05-15 12:41:00,
2013-05-15 08:46:00,56.0,37.0,29.63,West,270,6.0,10.0,48,0.00,,,0.00,Rainwise IP-100,2013-05-15 12:46:00,
2013-05-15 08:51:00,56.0,35.0,29.63,West,270,6.0,9.0,45,0.00,,,0.00,Rainwise IP-100,2013-05-15 12:51:00,
2013-05-15 08:56:00,56.0,36.0,29.63,SW,225,5.0,11.0,47,0.00,,,0.00,Rainwise IP-100,2013-05-15 12:56:00,
2013-05-15 09:01:00,56.0,38.0,29.63,SW,225,1.0,5.0,51,0.00,,,0.00,Rainwise IP-100,2013-05-15 13:01:00,
2013-05-15 09:06:00,57.0,38.0,29.63,SW,225,2.0,10.0,49,0.00,,,0.00,Rainwise IP-100,2013-05-15 13:06:00,
2013-05-15 09:11:00,56.0,36.0,29.63,West,270,7.0,13.0,47,0.00,,,0.00,Rainwise IP-100,2013-05-15 13:11:00,
2013-05-15 09:16:00,56.0,37.0,29.63,West,270,8.0,10.0,49,0.00,,,0.00,Rainwise IP-100,2013-05-15 13:16:00,
2013-05-15 09:21:00,56.0,32.0,29.63,West,270,5.0,11.0,40,0.00,,,0.00,Rainwise IP-100,2013-05-15 13:21:00,
2013-05-15 09:26:00,57.0,38.0,29.63,West,270,3.0,8.0,49,0.00,,,0.00,Rainwise IP-100,2013-05-15 13:26:00,
2013-05-15 09:31:00,58.0,36.0,29.63,West,270,5.0,6.0,42,0.00,,,0.00,Rainwise IP-100,2013-05-15 13:31:00,
2013-05-15 09:36:00,58.0,38.0,29.63,West,270,4.0,10.0,46,0.00,,,0.00,Rainwise IP-100,2013-05-15 13:36:00,
2013-05-15 09:41:00,59.0,40.0,29.63,West,270,3.0,11.0,49,0.00,,,0.00,Rainwise IP-100,2013-05-15 13:41:00,
2013-05-15 09:46:00,58.0,36.0,29.63,West,270,6.0,13.0,42,0.00,,,0.00,Rainwise IP-100,2013-05-15 13:46:00,
2013-05-15 09:51:00,57.0,31.0,29.62,West,270,11.0,13.0,36,0.00,,,0.00,Rainwise IP-100,2013-05-15 13:51:00,
2013-05-15 09:56:00,58.0,33.0,29.62,WSW,247,9.0,12.0,39,0.00,,,0.00,Rainwise IP-100,2013-05-15 13:56:00,
2013-05-15 10:01:00,59.0,36.0,29.62,WSW,247,6.0,12.0,41,0.00,,,0.00,Rainwise IP-100,2013-05-15 14:01:00,
2013-05-15 10:06:00,58.0,32.0,29.62,West,270,3.0,12.0,36,0.00,,,0.00,Rainwise IP-100,2013-05-15 14:06:00,
2013-05-15 10:11:00,57.0,31.0,29.62,West,270,8.0,20.0,36,0.00,,,0.00,Rainwise IP-100,2013-05-15 14:11:00,
2013-05-15 10:16:00,58.0,36.0,29.62,West,270,3.0,12.0,43,0.00,,,0.00,Rainwise IP-100,2013-05-15 14:16:00,
2013-05-15 10:21:00,59.0,35.0,29.62,West,270,6.0,10.0,39,0.00,,,0.00,Rainwise IP-100,2013-05-15 14:21:00,
2013-05-15 10:26:00,58.0,31.0,29.62,West,270,10.0,16.0,34,0.00,,,0.00,Rainwise IP-100,2013-05-15 14:26:00,
2013-05-15 10:31:00,60.0,36.0,29.61,NNE,22,3.0,10.0,40,0.00,,,0.00,Rainwise IP-100,2013-05-15 14:31:00,
2013-05-15 10:36:00,60.0,35.0,29.61,North,360,6.0,13.0,38,0.00,,,0.00,Rainwise IP-100,2013-05-15 14:36:00,
2013-05-15 10:41:00,60.0,32.0,29.61,North,360,5.0,14.0,34,0.00,,,0.00,Rainwise IP-100,2013-05-15 14:41:00,
2013-05-15 10:46:00,61.0,37.0,29.61,West,270,5.0,10.0,41,0.00,,,0.00,Rainwise IP-100,2013-05-15 14:46:00,
2013-05-15 10:51:00,61.0,33.0,29.61,West,270,0.0,14.0,36,0.00,,,0.00,Rainwise IP-100,2013-05-15 14:51:00,
2013-05-15 10:56:00,60.0,29.0,29.61,WSW,247,9.0,16.0,30,0.00,,,0.00,Rainwise IP-100,2013-05-15 14:56:00,
2013-05-15 11:01:00,60.0,33.0,29.61,WSW,247,4.0,14.0,36,0.00,,,0.00,Rainwise IP-100,2013-05-15 15:01:00,
2013-05-15 11:06:00,60.0,35.0,29.61,West,270,7.0,14.0,38,0.00,,,0.00,Rainwise IP-100,2013-05-15 15:06:00,
2013-05-15 11:11:00,60.0,28.0,29.60,West,270,11.0,16.0,29,0.00,,,0.00,Rainwise IP-100,2013-05-15 15:11:00,
2013-05-15 11:16:00,60.0,28.0,29.60,West,270,6.0,14.0,29,0.00,,,0.00,Rainwise IP-100,2013-05-15 15:16:00,
2013-05-15 11:21:00,60.0,29.0,29.60,West,270,5.0,14.0,31,0.00,,,0.00,Rainwise IP-100,2013-05-15 15:21:00,
2013-05-15 11:26:00,59.0,26.0,29.60,West,270,10.0,18.0,28,0.00,,,0.00,Rainwise IP-100,2013-05-15 15:26:00,
2013-05-15 11:31:00,60.0,29.0,29.60,West,270,3.0,16.0,30,0.00,,,0.00,Rainwise IP-100,2013-05-15 15:31:00,
2013-05-15 11:36:00,61.0,32.0,29.60,West,270,4.0,13.0,34,0.00,,,0.00,Rainwise IP-100,2013-05-15 15:36:00,
2013-05-15 11:41:00,61.0,28.0,29.59,West,270,9.0,13.0,28,0.00,,,0.00,Rainwise IP-100,2013-05-15 15:41:00,
2013-05-15 11:46:00,60.0,31.0,29.59,WSW,247,8.0,21.0,33,0.00,,,0.00,Rainwise IP-100,2013-05-15 15:46:00,
2013-05-15 11:51:00,60.0,29.0,29.59,SW,225,5.0,13.0,31,0.00,,,0.00,Rainwise IP-100,2013-05-15 15:51:00,
2013-05-15 11:56:00,60.0,32.0,29.59,SW,225,9.0,11.0,34,0.00,,,0.00,Rainwise IP-100,2013-05-15 15:56:00,
2013-05-15 12:01:00,60.0,32.0,29.59,WSW,247,10.0,17.0,34,0.00,,,0.00,Rainwise IP-100,2013-05-15 16:01:00,
2013-05-15 12:06:00,61.0,31.0,29.59,West,270,7.0,12.0,31,0.00,,,0.00,Rainwise IP-100,2013-05-15 16:06:00,
2013-05-15 12:11:00,60.0,28.0,29.59,West,270,4.0,14.0,29,0.00,,,0.00,Rainwise IP-100,2013-05-15 16:11:00,
2013-05-15 12:16:00,61.0,32.0,29.59,West,270,4.0,12.0,34,0.00,,,0.00,Rainwise IP-100,2013-05-15 16:16:00,
2013-05-15 12:21:00,61.0,29.0,29.58,West,270,7.0,16.0,29,0.00,,,0.00,Rainwise IP-100,2013-05-15 16:21:00,
2013-05-15 12:26:00,60.0,29.0,29.58,West,270,8.0,16.0,31,0.00,,,0.00,Rainwise IP-100,2013-05-15 16:26:00,
2013-05-15 12:31:00,61.0,31.0,29.58,SW,225,8.0,15.0,31,0.00,,,0.00,Rainwise IP-100,2013-05-15 16:31:00,
2013-05-15 12:36:00,60.0,31.0,29.58,WSW,247,11.0,11.0,33,0.00,,,0.00,Rainwise IP-100,2013-05-15 16:36:00,
2013-05-15 12:41:00,60.0,29.0,29.58,West,270,4.0,12.0,30,0.00,,,0.00,Rainwise IP-100,2013-05-15 16:41:00,
2013-05-15 12:46:00,61.0,26.0,29.58,West,270,6.0,13.0,26,0.00,,,0.00,Rainwise IP-100,2013-05-15 16:46:00,
2013-05-15 12:54:00,60.0,29.0,29.57,WSW,247,8.0,9.0,31,0.00,,,0.00,Rainwise IP-100,2013-05-15 16:54:00,
2013-05-15 12:59:00,60.0,28.0,29.57,West,270,11.0,15.0,29,0.00,,,0.00,Rainwise IP-100,2013-05-15 16:59:00,
2013-05-15 13:04:00,60.0,31.0,29.57,South,180,7.0,17.0,33,0.00,,,0.00,Rainwise IP-100,2013-05-15 17:04:00,
2013-05-15 13:09:00,61.0,31.0,29.57,SW,225,15.0,15.0,32,0.00,,,0.00,Rainwise IP-100,2013-05-15 17:09:00,
2013-05-15 13:14:00,60.0,28.0,29.58,WSW,247,10.0,16.0,28,0.00,,,0.00,Rainwise IP-100,2013-05-15 17:14:00,
2013-05-15 13:19:00,60.0,31.0,29.58,SW,225,11.0,17.0,32,0.00,,,0.00,Rainwise IP-100,2013-05-15 17:19:00,
2013-05-15 13:24:00,60.0,28.0,29.57,West,270,6.0,18.0,28,0.00,,,0.00,Rainwise IP-100,2013-05-15 17:24:00,
2013-05-15 13:29:00,60.0,29.0,29.57,WSW,247,9.0,14.0,31,0.00,,,0.00,Rainwise IP-100,2013-05-15 17:29:00,
2013-05-15 13:34:00,60.0,26.0,29.57,WSW,247,10.0,17.0,27,0.00,,,0.00,Rainwise IP-100,2013-05-15 17:34:00,
2013-05-15 13:39:00,60.0,31.0,29.57,West,270,9.0,16.0,33,0.00,,,0.00,Rainwise IP-100,2013-05-15 17:39:00,
2013-05-15 13:44:00,60.0,28.0,29.57,West,270,6.0,17.0,28,0.00,,,0.00,Rainwise IP-100,2013-05-15 17:44:00,
2013-05-15 13:49:00,60.0,29.0,29.57,WSW,247,9.0,19.0,31,0.00,,,0.00,Rainwise IP-100,2013-05-15 17:49:00,
2013-05-15 13:54:00,60.0,26.0,29.56,West,270,8.0,16.0,26,0.00,,,0.00,Rainwise IP-100,2013-05-15 17:54:00,
2013-05-15 13:59:00,60.0,29.0,29.56,SSW,202,15.0,18.0,31,0.00,,,0.00,Rainwise IP-100,2013-05-15 17:59:00,
2013-05-15 14:04:00,60.0,28.0,29.56,WSW,247,10.0,18.0,29,0.00,,,0.00,Rainwise IP-100,2013-05-15 18:04:00,
2013-05-15 14:09:00,59.0,24.0,29.56,West,270,19.0,21.0,26,0.00,,,0.00,Rainwise IP-100,2013-05-15 18:09:00,
2013-05-15 14:12:00,59.0,24.0,29.55,WSW,247,13.0,21.0,26,0.00,,,0.00,Rainwise IP-100,2013-05-15 18:12:00,
2013-05-15 14:17:00,60.0,28.0,29.55,SE,135,3.0,19.0,28,0.00,,,0.00,Rainwise IP-100,2013-05-15 18:17:00,
2013-05-15 14:22:00,59.0,28.0,29.55,SW,225,10.0,22.0,29,0.00,,,0.00,Rainwise IP-100,2013-05-15 18:22:00,
2013-05-15 14:27:00,60.0,28.0,29.55,SW,225,4.0,16.0,28,0.00,,,0.00,Rainwise IP-100,2013-05-15 18:27:00,
2013-05-15 14:32:00,59.0,28.0,29.55,SW,225,11.0,19.0,29,0.00,,,0.00,Rainwise IP-100,2013-05-15 18:32:00,
2013-05-15 14:36:00,60.0,28.0,29.55,SW,225,11.0,19.0,28,0.00,,,0.00,Rainwise IP-100,2013-05-15 18:36:00,
2013-05-15 14:41:00,59.0,29.0,29.55,SW,225,14.0,19.0,31,0.00,,,0.00,Rainwise IP-100,2013-05-15 18:41:00,
2013-05-15 14:46:00,60.0,32.0,29.55,SW,225,8.0,17.0,35,0.00,,,0.00,Rainwise IP-100,2013-05-15 18:46:00,
2013-05-15 14:51:00,60.0,29.0,29.55,West,270,6.0,16.0,31,0.00,,,0.00,Rainwise IP-100,2013-05-15 18:51:00,
2013-05-15 14:56:00,59.0,31.0,29.54,SW,225,6.0,16.0,33,0.00,,,0.00,Rainwise IP-100,2013-05-15 18:56:00,
2013-05-15 15:01:00,59.0,29.0,29.54,WSW,247,7.0,15.0,31,0.00,,,0.00,Rainwise IP-100,2013-05-15 19:01:00,
2013-05-15 15:04:00,60.0,29.0,29.54,SW,225,19.0,19.0,31,0.00,,,0.00,Rainwise IP-100,2013-05-15 19:04:00,
2013-05-15 15:09:00,59.0,26.0,29.54,West,270,10.0,21.0,28,0.00,,,0.00,Rainwise IP-100,2013-05-15 19:09:00,
2013-05-15 15:14:00,60.0,31.0,29.53,SW,225,8.0,14.0,33,0.00,,,0.00,Rainwise IP-100,2013-05-15 19:14:00,
2013-05-15 15:19:00,59.0,29.0,29.53,SW,225,10.0,16.0,31,0.00,,,0.00,Rainwise IP-100,2013-05-15 19:19:00,
2013-05-15 15:24:00,59.0,29.0,29.53,West,270,7.0,17.0,32,0.00,,,0.00,Rainwise IP-100,2013-05-15 19:24:00,
2013-05-15 15:29:00,60.0,29.0,29.53,SW,225,10.0,17.0,31,0.00,,,0.00,Rainwise IP-100,2013-05-15 19:29:00,
2013-05-15 15:34:00,59.0,31.0,29.54,SW,225,15.0,17.0,34,0.00,,,0.00,Rainwise IP-100,2013-05-15 19:34:00,
2013-05-15 15:39:00,59.0,29.0,29.54,WSW,247,10.0,19.0,31,0.00,,,0.00,Rainwise IP-100,2013-05-15 19:39:00,
2013-05-15 15:53:00,57.0,28.0,29.53,SW,225,12.0,14.0,32,0.00,,,0.00,Rainwise IP-100,2013-05-15 19:53:00,
2013-05-15 15:58:00,56.0,31.0,29.53,SW,225,11.0,21.0,37,0.00,,,0.00,Rainwise IP-100,2013-05-15 19:58:00,
2013-05-15 16:03:00,56.0,28.0,29.53,SW,225,6.0,13.0,34,0.00,,,0.00,Rainwise IP-100,2013-05-15 20:03:00,
2013-05-15 16:08:00,56.0,31.0,29.53,SSW,202,4.0,16.0,37,0.00,,,0.00,Rainwise IP-100,2013-05-15 20:08:00,
2013-05-15 16:13:00,57.0,32.0,29.53,SSW,202,8.0,14.0,38,0.00,,,0.00,Rainwise IP-100,2013-05-15 20:13:00,
2013-05-15 16:18:00,57.0,31.0,29.53,SW,225,13.0,19.0,36,0.00,,,0.00,Rainwise IP-100,2013-05-15 20:18:00,
2013-05-15 16:23:00,57.0,29.0,29.53,SW,225,18.0,24.0,34,0.00,,,0.00,Rainwise IP-100,2013-05-15 20:23:00,
2013-05-15 16:28:00,57.0,29.0,29.53,West,270,8.0,20.0,34,0.00,,,0.00,Rainwise IP-100,2013-05-15 20:28:00,
2013-05-15 16:33:00,57.0,33.0,29.53,SW,225,8.0,19.0,40,0.00,,,0.00,Rainwise IP-100,2013-05-15 20:33:00,
2013-05-15 16:35:00,57.0,33.0,29.53,SW,225,15.0,15.0,40,0.00,,,0.00,Rainwise IP-100,2013-05-15 20:35:00,
2013-05-15 16:40:00,56.0,29.0,29.53,West,270,13.0,15.0,35,0.00,,,0.00,Rainwise IP-100,2013-05-15 20:40:00,
2013-05-15 16:45:00,56.0,29.0,29.52,SW,225,12.0,17.0,36,0.00,,,0.00,Rainwise IP-100,2013-05-15 20:45:00,
2013-05-15 16:50:00,56.0,31.0,29.52,SW,225,7.0,13.0,38,0.00,,,0.00,Rainwise IP-100,2013-05-15 20:50:00,
2013-05-15 16:55:00,56.0,35.0,29.51,SW,225,5.0,10.0,44,0.00,,,0.00,Rainwise IP-100,2013-05-15 20:55:00,
2013-05-15 16:56:00,56.0,35.0,29.51,South,180,6.0,10.0,44,0.00,,,0.00,Rainwise IP-100,2013-05-15 20:56:00,
2013-05-15 17:01:00,56.0,33.0,29.51,SSW,202,13.0,13.0,42,0.00,,,0.00,Rainwise IP-100,2013-05-15 21:01:00,
2013-05-15 17:06:00,56.0,32.0,29.51,SSW,202,6.0,13.0,40,0.00,,,0.00,Rainwise IP-100,2013-05-15 21:06:00,
2013-05-15 17:10:00,56.0,32.0,29.51,WSW,247,12.0,12.0,40,0.00,,,0.00,Rainwise IP-100,2013-05-15 21:10:00,
2013-05-15 17:15:00,56.0,32.0,29.50,SW,225,6.0,16.0,39,0.00,,,0.00,Rainwise IP-100,2013-05-15 21:15:00,
2013-05-15 17:20:00,55.0,33.0,29.50,SSW,202,6.0,16.0,43,0.00,,,0.00,Rainwise IP-100,2013-05-15 21:20:00,
2013-05-15 17:25:00,55.0,33.0,29.50,South,180,9.0,19.0,43,0.00,,,0.00,Rainwise IP-100,2013-05-15 21:25:00,
2013-05-15 17:30:00,55.0,33.0,29.50,West,270,5.0,15.0,43,0.00,,,0.00,Rainwise IP-100,2013-05-15 21:30:00,
2013-05-15 17:35:00,55.0,32.0,29.49,SSE,157,7.0,13.0,41,0.00,,,0.00,Rainwise IP-100,2013-05-15 21:35:00,
2013-05-15 17:40:00,55.0,36.0,29.49,SW,225,6.0,14.0,48,0.00,,,0.00,Rainwise IP-100,2013-05-15 21:40:00,
2013-05-15 17:45:00,55.0,32.0,29.48,South,180,7.0,11.0,41,0.00,,,0.00,Rainwise IP-100,2013-05-15 21:45:00,
2013-05-15 17:50:00,55.0,33.0,29.48,South,180,8.0,10.0,44,0.00,,,0.00,Rainwise IP-100,2013-05-15 21:50:00,
2013-05-15 17:51:00,55.0,33.0,29.48,SSW,202,6.0,10.0,44,0.00,,,0.00,Rainwise IP-100,2013-05-15 21:51:00,
2013-05-15 17:56:00,55.0,32.0,29.48,SSW,202,9.0,13.0,41,0.00,,,0.00,Rainwise IP-100,2013-05-15 21:56:00,
2013-05-15 18:01:00,55.0,33.0,29.48,SW,225,7.0,13.0,43,0.00,,,0.00,Rainwise IP-100,2013-05-15 22:01:00,
2013-05-15 18:06:00,54.0,33.0,29.47,WSW,247,7.0,13.0,46,0.00,,,0.00,Rainwise IP-100,2013-05-15 22:06:00,
2013-05-15 18:11:00,54.0,33.0,29.47,South,180,7.0,13.0,46,0.00,,,0.00,Rainwise IP-100,2013-05-15 22:11:00,
2013-05-15 18:16:00,54.0,36.0,29.47,SW,225,5.0,21.0,49,0.00,,,0.00,Rainwise IP-100,2013-05-15 22:16:00,
2013-05-15 18:21:00,54.0,37.0,29.47,SW,225,4.0,12.0,52,0.00,,,0.00,Rainwise IP-100,2013-05-15 22:21:00,
2013-05-15 18:26:00,53.0,37.0,29.47,WSW,247,6.0,13.0,54,0.00,,,0.00,Rainwise IP-100,2013-05-15 22:26:00,
2013-05-15 18:31:00,53.0,38.0,29.48,SW,225,8.0,13.0,58,0.00,,,0.00,Rainwise IP-100,2013-05-15 22:31:00,
2013-05-15 18:34:00,53.0,38.0,29.48,WSW,247,9.0,14.0,58,0.00,,,0.00,Rainwise IP-100,2013-05-15 22:34:00,
2013-05-15 18:39:00,53.0,39.0,29.48,SSW,202,5.0,17.0,60,0.00,,,0.00,Rainwise IP-100,2013-05-15 22:39:00,
2013-05-15 18:44:00,53.0,40.0,29.47,SW,225,8.0,14.0,62,0.00,,,0.00,Rainwise IP-100,2013-05-15 22:44:00,
2013-05-15 18:49:00,53.0,39.0,29.47,South,180,9.0,12.0,61,0.00,,,0.00,Rainwise IP-100,2013-05-15 22:49:00,
2013-05-15 18:54:00,53.0,40.0,29.47,SW,225,5.0,12.0,63,0.00,,,0.00,Rainwise IP-100,2013-05-15 22:54:00,
2013-05-15 18:59:00,53.0,39.0,29.47,SSW,202,6.0,10.0,61,0.00,,,0.00,Rainwise IP-100,2013-05-15 22:59:00,
2013-05-15 19:04:00,53.0,40.0,29.46,SW,225,6.0,11.0,63,0.00,,,0.00,Rainwise IP-100,2013-05-15 23:04:00,
2013-05-15 19:09:00,52.0,41.0,29.46,SW,225,5.0,12.0,66,0.00,,,0.00,Rainwise IP-100,2013-05-15 23:09:00,
2013-05-15 19:14:00,52.0,40.0,29.46,SE,135,5.0,10.0,65,0.00,,,0.00,Rainwise IP-100,2013-05-15 23:14:00,
2013-05-15 19:17:00,52.0,41.0,29.46,SSE,157,4.0,10.0,66,0.00,,,0.00,Rainwise IP-100,2013-05-15 23:17:00,
2013-05-15 19:22:00,52.0,41.0,29.46,SSE,157,5.0,10.0,66,0.00,,,0.00,Rainwise IP-100,2013-05-15 23:22:00,
2013-05-15 19:27:00,52.0,42.0,29.46,SSW,202,3.0,9.0,68,0.00,,,0.00,Rainwise IP-100,2013-05-15 23:27:00,
2013-05-15 19:32:00,52.0,42.0,29.46,South,180,7.0,12.0,68,0.00,,,0.00,Rainwise IP-100,2013-05-15 23:32:00,
2013-05-15 19:37:00,52.0,42.0,29.46,South,180,5.0,9.0,69,0.00,,,0.00,Rainwise IP-100,2013-05-15 23:37:00,
2013-05-15 19:42:00,52.0,42.0,29.46,SW,225,6.0,9.0,70,0.00,,,0.00,Rainwise IP-100,2013-05-15 23:42:00,
2013-05-15 19:47:00,52.0,43.0,29.46,South,180,4.0,11.0,71,0.00,,,0.00,Rainwise IP-100,2013-05-15 23:47:00,
2013-05-15 19:52:00,52.0,43.0,29.47,SW,225,11.0,12.0,73,0.00,,,0.00,Rainwise IP-100,2013-05-15 23:52:00,
2013-05-15 19:57:00,52.0,43.0,29.47,West,270,4.0,13.0,73,0.00,,,0.00,Rainwise IP-100,2013-05-15 23:57:00,
2013-05-15 20:02:00,51.0,45.0,29.47,West,270,8.0,15.0,78,0.00,,,0.00,Rainwise IP-100,2013-05-16 00:02:00,
2013-05-15 20:07:00,50.0,46.0,29.47,SW,225,7.0,14.0,85,0.06,,,0.01,Rainwise IP-100,2013-05-16 00:07:00,
2013-05-15 20:12:00,50.0,47.0,29.46,WSW,247,7.0,12.0,88,0.18,,,0.03,Rainwise IP-100,2013-05-16 00:12:00,
2013-05-15 20:17:00,49.0,47.0,29.46,SSW,202,5.0,10.0,91,0.12,,,0.03,Rainwise IP-100,2013-05-16 00:17:00,
2013-05-15 20:22:00,49.0,47.0,29.45,SW,225,6.0,12.0,92,0.06,,,0.04,Rainwise IP-100,2013-05-16 00:22:00,
2013-05-15 20:27:00,49.0,47.5,29.45,South,180,3.0,10.0,94,0.12,,,0.05,Rainwise IP-100,2013-05-16 00:27:00,
2013-05-15 20:32:00,49.0,47.5,29.44,SSW,202,6.0,12.0,95,0.12,,,0.06,Rainwise IP-100,2013-05-16 00:32:00,
2013-05-15 20:37:00,49.0,48.0,29.44,SSW,202,5.0,12.0,96,0.12,,,0.07,Rainwise IP-100,2013-05-16 00:37:00,
2013-05-15 20:42:00,48.0,47.5,29.43,South,180,4.0,9.0,97,0.12,,,0.08,Rainwise IP-100,2013-05-16 00:42:00,
2013-05-15 20:47:00,48.0,47.5,29.43,SSW,202,5.0,9.0,97,0.12,,,0.09,Rainwise IP-100,2013-05-16 00:47:00,
2013-05-15 20:52:00,49.0,48.0,29.43,South,180,5.0,10.0,98,0.12,,,0.10,Rainwise IP-100,2013-05-16 00:52:00,
2013-05-15 20:57:00,49.0,49.0,29.43,South,180,5.0,9.0,99,0.06,,,0.10,Rainwise IP-100,2013-05-16 00:57:00,
2013-05-15 21:02:00,49.0,49.0,29.43,SW,225,3.0,8.0,99,0.00,,,0.10,Rainwise IP-100,2013-05-16 01:02:00,
2013-05-15 21:07:00,49.0,49.0,29.43,SW,225,5.0,7.0,99,0.00,,,0.10,Rainwise IP-100,2013-05-16 01:07:00,
2013-05-15 21:12:00,49.0,49.0,29.43,SW,225,6.0,9.0,99,0.06,,,0.11,Rainwise IP-100,2013-05-16 01:12:00,
2013-05-15 21:17:00,49.0,49.0,29.43,SSE,157,4.0,7.0,100,0.18,,,0.13,Rainwise IP-100,2013-05-16 01:17:00,
2013-05-15 21:22:00,49.0,49.0,29.43,SSE,157,4.0,7.0,100,0.12,,,0.13,Rainwise IP-100,2013-05-16 01:22:00,
2013-05-15 21:27:00,49.0,49.0,29.43,WSW,247,6.0,12.0,100,0.06,,,0.14,Rainwise IP-100,2013-05-16 01:27:00,
2013-05-15 21:31:00,49.0,49.0,29.43,SW,225,8.0,10.0,100,0.06,,,0.15,Rainwise IP-100,2013-05-16 01:31:00,
2013-05-15 21:36:00,49.0,49.0,29.43,South,180,7.0,13.0,100,0.18,,,0.17,Rainwise IP-100,2013-05-16 01:36:00,
2013-05-15 21:47:00,49.0,49.0,29.41,WSW,247,5.0,10.0,100,0.06,,,0.20,Rainwise IP-100,2013-05-16 01:47:00,
2013-05-15 21:52:00,49.0,49.0,29.41,SW,225,8.0,10.0,100,0.12,,,0.20,Rainwise IP-100,2013-05-16 01:52:00,
2013-05-15 21:56:00,48.0,48.0,29.41,SW,225,19.0,19.0,100,0.12,,,0.23,Rainwise IP-100,2013-05-16 01:56:00,
2013-05-15 22:07:00,48.0,48.0,29.41,South,180,7.0,19.0,100,0.00,,,0.26,Rainwise IP-100,2013-05-16 02:07:00,
2013-05-15 22:12:00,48.0,48.0,29.40,SSW,202,7.0,19.0,100,0.24,,,0.27,Rainwise IP-100,2013-05-16 02:12:00,
2013-05-15 22:17:00,48.0,48.0,29.40,SSW,202,5.0,8.0,100,0.30,,,0.28,Rainwise IP-100,2013-05-16 02:17:00,
2013-05-15 22:25:00,48.0,48.0,29.39,SSE,157,4.0,7.0,100,0.06,,,0.28,Rainwise IP-100,2013-05-16 02:25:00,
2013-05-15 22:38:00,48.0,48.0,29.39,South,180,5.0,7.0,100,0.00,,,0.28,Rainwise IP-100,2013-05-16 02:38:00,